Preview of NWS' New Version of Forecast
This preview is not operational and should not be used for support decisions.

Regional Weather Roundup (RWR)

Issued by National Weather Service (NWS)

                            
000
ASUS43 KDTX 231001
RWRMI 
MICHIGAN HOURLY REGIONAL WEATHER ROUNDUP
NATIONAL WEATHER SERVICE DETROIT/PONTIAC MI
500 AM EST SAT FEB 23 2019

NOTE: "FAIR" INDICATES FEW OR NO CLOUDS BELOW 12,000 FEET WITH NO
SIGNIFICANT WEATHER AND/OR OBSTRUCTION TO VISIBILITY.

MIZ047>049-052>055-059>063-066>070-074>076-081>083-231100-
SOUTHEAST LOWER MICHIGAN
  
CITY           SKY/WX    TMP DP  RH WIND       PRES   REMARKS
ADRIAN         CLOUDY    29  22  75 E9        30.25F WCI  20          
ALMA           CLOUDY    28  23  82 E7          N/A  WCI  21          
ANN ARBOR      CLOUDY    28  22  78 NE8       30.27F WCI  20          
BAD AXE        CLOUDY    28  25  86 CALM      30.34S                  
CARO           CLOUDY    28  24  88 E3        30.32F                  
DETROIT CITY   FAIR      26  22  84 E6        30.31F WCI  19          
DETROIT        CLOUDY    28  21  75 E5        30.30F WCI  23          
FLINT          FAIR      23  19  85 E5        30.30F WCI  17          
GROSSE ILE     FAIR      29  23  76 E7        30.28F WCI  22          
HILLSDALE      CLOUDY    30  21  68 E8G16     30.20F WCI  23          
HOWELL         MOCLDY    28  21  75 SE6       30.27F WCI  22          

CITY           SKY/WX    TMP DP  RH WIND       PRES   REMARKS
JACKSON        CLOUDY    30  21  69 E9        30.23F WCI  22          
LAMBERTVILLE   CLOUDY    31  26  81 E6        30.25F WCI  25          
LANSING        CLOUDY    29  22  75 E10       30.26F WCI  20          
LAPEER         FAIR      26  20  79 E3        30.31F                  
MASON          CLOUDY    30  22  72 E9        30.24F WCI  22          
MONROE         CLOUDY    30  27  89 E7        30.27F WCI  23          
MT. CLEMENS    FAIR      26  24  91 E6        30.30F WCI  20          
PONTIAC        MOCLDY    27  20  75 E8        30.27F WCI  19          
PORT HOPE        N/A     29  25  85 SE9       30.34S WCI  20          
PORT HURON     FAIR      25  21  86 E6        30.33F WCI  18          
TRI CITIES     CLOUDY    27  24  89 E8        30.32F WCI  19          
MIDLAND        CLOUDY    28  24  83 E6        30.31F WCI  22          
TROY           MOCLDY    27  20  76 NE3       30.32F                  
SAGINAW HB     CLOUDY    28  25  86 E6        30.32F WCI  22          
$$
MIZ043>046-050>051-056>058-064>065-071>073-077>080-231100-
SOUTHWEST LOWER MICHIGAN
  
CITY           SKY/WX    TMP DP  RH WIND       PRES   REMARKS
BATTLE CREEK   CLOUDY    30  20  66 E7        30.22F WCI  23          
BENTON HARBOR  CLOUDY    34  24  67 E14       30.16F WCI  25          
BIG RAPIDS     CLOUDY    28  23  80 E8        30.24F WCI  20          
COLDWATER      CLOUDY    32  24  71 E8        30.21F WCI  25          
FREMONT        CLOUDY    32  22  69 E8        30.23S WCI  24          
HOLLAND        CLOUDY    32  21  64 E12       30.20F WCI  23          
GRAND RAPIDS   CLOUDY    31  21  66 E14       30.22F WCI  21          
IONIA          CLOUDY    29  21  72 E10       30.24F WCI  20          
KALAMAZOO      CLOUDY    32  22  66 E7        30.21F WCI  26          
LUDINGTON      CLOUDY    31  22  68 CALM      30.24R                  
MARSHALL       CLOUDY    31  22  69 E7        30.22F WCI  24          
MOUNT PLEASANT CLOUDY    28  21  76 E5        30.28F WCI  22          
MUSKEGON       CLOUDY    32  20  61 E16       30.21F WCI  21          
SOUTH HAVEN    CLOUDY    33  23  66 SE10      30.18F WCI  25          
$$
MIZ016>042-231100-
NORTHERN LOWER MICHIGAN
  
CITY           SKY/WX    TMP DP  RH WIND       PRES   REMARKS
ALPENA         MOCLDY    14  11  87 CALM      30.36F                  
BEAVER ISLAND  CLOUDY    27  26  98 E7        30.29F WCI  19          
BELLAIRE       CLOUDY    26  21  82 CALM      30.30F                  
CADILLAC       CLOUDY    26  19  75 E9        30.22F WCI  17          
CHARLEVOIX     CLOUDY    25  22  87 SE3       30.32S                  
FRANKFORT      CLOUDY    30  21  69 E5        30.25F WCI  25          
GAYLORD        CLOUDY    23  18  81 SE6       30.27F WCI  16          
GRAYLING       CLOUDY    23  20  88 E7        30.27F WCI  14          
HARBOR SPRINGS CLOUDY    22  20  93 E10       30.29F WCI  11          
HOUGHTON LAKE  CLOUDY    25  20  81 E6        30.29F WCI  18          
MANISTEE       CLOUDY    29  22  75 E6        30.25F WCI  23          
OSCODA         CLOUDY    20  18  91 CALM      30.36S                  
PELLSTON       CLOUDY    17  14  88 CALM      30.33F                  
ROGERS CITY    MOCLDY    21  18  87 CALM      30.36F                  
TRAVERSE CITY  CLOUDY    27  23  85 CALM      30.26F                  
$$
MIZ007>008-015-231100-
EASTERN UPPER MICHIGAN
  
CITY           SKY/WX    TMP DP  RH WIND       PRES   REMARKS
KINROSS        CLOUDY    20  18  92 E7        30.34F WCI  11          
MACKINAC ISLAN CLOUDY    28  28 100 E7        30.32F WCI  20          
NEWBERRY       CLOUDY    22  20  92 MISG      30.29F                  
S. S. MARIE    CLOUDY    22  19  89 E3        30.34F                  
MUNISING         N/A     24  17  74 SW5       30.29S WCI  18          
$$
MIZ004>006-011>014-085-231100-
CENTRAL UPPER MICHIGAN
  
CITY           SKY/WX    TMP DP  RH WIND       PRES   REMARKS
MANISTIQUE     CLOUDY    25  20  80 E3        30.29S HAZE             
ESCANABA       CLOUDY    19  15  84 N3        30.30F                  
SAWYER-GWINN   CLOUDY    24  20  86 CALM      30.24F                  
$$
MIZ001>003-009>011-084-231100-
WESTERN UPPER MICHIGAN
  
CITY           SKY/WX    TMP DP  RH WIND       PRES   REMARKS
IRON MOUNTAIN  CLOUDY    25  18  74 E6        30.22F WCI  18          
HOUGHTON       CLOUDY    25  20  81 E8        30.22F WCI  16          
COPPER HARBOR    N/A     27  24  89 VRB3      30.25F                  
IRONWOOD       LGT SNOW  26  23  88 E7        30.16F FOG     WCI  18  
$$

ABBREVIATIONS USED IN REMARKS
   TC - TEMPERATURE IN CELSIUS
  WCI - WIND CHILL INDEX
   HX - HEAT INDEX
  VSB - VISIBILITY